Location: Caltech
(34.1382°N, 118.1253°W)
Time: 06:41:01
(UTC-07:00)

Cosmos 1125 Rocket - Visible Passes

Search period start: 28 September 2016 00:00
Search period end: 08 October 2016 00:00
Orbit: 758 x 780 km, 74.0° (Epoch: 27 September)

Date Brightness Start Highest point End Pass type
(mag) Time Alt. Az. Time Alt. Az. Time Alt. Az.
28 Sep 6.2 05:00:36 10° SE 05:04:09 19° E 05:07:42 10° NE visible
29 Sep 3.4 06:03:55 10° SSW 06:09:05 73° WNW 06:14:18 10° NNE visible
30 Sep 4.0 05:27:20 10° S 05:32:26 62° ESE 05:37:35 10° NNE visible
01 Oct 5.1 04:51:15 10° SSE 04:55:53 34° E 05:00:32 10° NE visible
02 Oct 5.9 04:15:51 10° SE 04:19:25 19° E 04:22:58 10° NE visible
02 Oct 3.9 05:56:15 10° SW 06:01:06 40° WNW 06:06:00 10° N visible
03 Oct 3.4 05:20:06 15° SSW 05:24:21 73° WNW 05:29:34 10° NNE visible
04 Oct 3.8 04:45:36 35° S 04:47:41 63° ESE 04:52:50 10° NNE visible
05 Oct 4.9 04:10:49 34° ESE 04:11:08 34° E 04:15:47 10° NE visible
05 Oct 4.6 05:51:12 19° W 05:53:13 23° WNW 05:57:21 10° NNW visible
06 Oct 6.0 03:35:52 18° E 03:35:52 18° E 03:38:14 10° NE visible
06 Oct 3.9 05:16:13 40° WNW 05:16:21 40° WNW 05:21:15 10° N visible
07 Oct 4.1 04:41:04 47° N 04:41:04 47° N 04:44:49 10° NNE visible
